Weather Roundup
Issued by NWS

Home | Current Version | Previous Version | Text Only | Print | Product List | Glossary On
Versions: 1 2 3 4 5 6 7 8 9 10 11 12 13 14 15 16 17 18 19 20 21 22 23 24 25 26 27 28 29 30 31 32 33 34 35 36 37 38 39 40 41 42 43 44 45 46 47 48 49 50
000
NZUS93 KARX 210710
HRRWXR

CURRENT HOURLY OBSERVATIONS ACROSS
MUCH OF THE UPPER MISSISSIPPI VALLEY
NATIONAL WEATHER SERVICE LA CROSSE WI
200 AM CDT THU SEP 21 2017


...SOUTHEAST MINNESOTA...


CITY           SKY/WX    TMP DP  RH WIND       PRES   REMARKS
ROCHESTER      CLEAR     57  52  83 N6        30.00R
ROCHESTER/MAYO FAIR      58  55  90 CALM      30.00S
WINONA         CLEAR     57  55  94 NW3       29.99R
AUSTIN         CLEAR     54  50  87 CALM      29.99S
ALBERT LEA     CLEAR     54  54 100 VRB3      30.00R
DODGE CENTER   CLEAR     54  50  87 CALM      30.00R
PRESTON        CLEAR     55  51  85 CALM      30.01R
OWATONNA       CLEAR     50  48  93 CALM      30.00R
FARIBAULT      CLEAR     48  48 100 CALM      30.01R
$$

...ELSEWHERE IN MINNESOTA...


CITY           SKY/WX    TMP DP  RH WIND       PRES   REMARKS
MINNEAPOLIS    CLEAR     57  52  83 CALM      30.00R
INTNL FALLS    CLEAR     43  40  89 SE3       29.94R
DULUTH         CLEAR     45  43  93 CALM      30.01R
RED WING       CLEAR     52  50  93 CALM      29.99R
REDWOOD FALLS  CLEAR     54  47  77 E7        29.97R
MANKATO        CLEAR     60  50  69 NE7       29.99S
WORTHINGTON    CLEAR     50  46  86 E5        29.97S
FAIRMONT       CLEAR     53  48  83 E3        29.98S
$$

...SOUTHWEST WISCONSIN...


CITY           SKY/WX    TMP DP  RH WIND       PRES   REMARKS
LA CROSSE      NOT AVBL
PRAIRIE DU CHI CLOUDY    69  66  90 N3        29.93S
BOSCOBEL       CLOUDY    72  69  90 N5        29.95S
LONE ROCK      MOCLDY    71  70  96 N3        29.94S
PLATTEVILLE    CLOUDY    69  69 100 N3        29.95F
FORT MC COY    FOG       58  58 100 CALM      29.99R VSB 1/2
CAMP DOUGLAS   PTCLDY    64  64 100 NW6       29.97R
MAUSTON-NEW LI PTSUNNY   67  66  97 CALM      29.95F FOG
VIROQUA        CLOUDY    64  64 100 CALM      30.00R
WIS DELLS      CLOUDY    69  68  96 CALM      29.96S FOG
$$

...ELSEWHERE IN WISCONSIN...


CITY           SKY/WX    TMP DP  RH WIND       PRES   REMARKS
MILWAUKEE      CLOUDY    70  67  90 E3        29.95S
MADISON        LGT RAIN  72  71  97 SE5       29.94S
GREEN BAY      MOCLDY    66  66 100 NW3       29.95R
EAU CLAIRE     CLEAR     53  52  96 CALM      29.99R
BLACK RVR FLS  FOG       54  54 100 CALM      29.98R VSB 1/4
MEDFORD        FOG       53  53  99 CALM      30.00R VSB 1/2
WAUSAU         CLOUDY    62  61  96 NW6       29.96R
WIS RAPIDS     FOG       62  62 100 W3        29.98R VSB 1/4
MARSHFIELD     CLEAR     59  57  93 NW5       29.98R
RICE LAKE      CLEAR     48  48  98 NW3       30.02S FOG
$$

...NORTHEAST IOWA...


CITY           SKY/WX    TMP DP  RH WIND       PRES   REMARKS
WATERLOO       PTCLDY    64  61  90 N8        29.91F
DUBUQUE        CLOUDY    69  66  90 N3        29.93F
DECORAH        CLOUDY    61  59  94 NW6       29.96F
MASON CITY     CLEAR     52  50  93 NE3       29.99R
CHARLES CITY   CLEAR     57  57 100 NE6       29.98S
OELWEIN        CLEAR     66  64  94 NE8       29.93F
$$

...ELSEWHERE IN IOWA...


CITY           SKY/WX    TMP DP  RH WIND       PRES   REMARKS
DES MOINES     PTCLDY    71  60  68 NE7       29.90S
IOWA CITY      CLOUDY    71  68  90 SE9       29.92F
FORT DODGE     CLEAR     57  53  86 E7        29.96R
MARSHALLTOWN   CLEAR     68  62  81 N5        29.90F
CEDAR RAPIDS     N/A     71  71 100 S6        29.90S
$$

...NORTHERN ILLINOIS...


CITY           SKY/WX    TMP DP  RH WIND       PRES   REMARKS
CHICAGO-OHARE  CLOUDY    79  67  66 CALM      29.95R
CHICAGO-MIDWAY CLOUDY    78  68  71 S6        29.95S
MOLINE         TSTM      69  64  84 SE14      29.96F
ROCKFORD       LGT RAIN  72  69  90 CALM      29.96S
PEORIA         CLOUDY    77  71  82 S3        29.95S
$$

NOTE: "FAIR" INDICATES FEW OR NO CLOUDS BELOW 12,000 FEET WITH NO
SIGNIFICANT WEATHER AND/OR OBSTRUCTIONS TO VISIBILITY. WIND
SPEEDS ARE IN MILES-PER-HOUR.




USA.gov is the U.S. government's official web portal to all federal, state and local government web resources and services.